| time (UTC) | temp F | wind direction | speed MPH | gust MPH | rain 1hr in | rain 24hr in | rain mn in | humidity % | barometer mb |
| 20260505152703 | 55 | 238 | 0.0 | 3.0 | 0.00 | 0.04 | 0.04 | 87 | 1014.8 |
| 20260505151803 | 54 | 230 | 0.0 | 2.0 | 0.00 | 0.04 | 0.04 | 88 | 1014.7 |
| 20260505150903 | 54 | 250 | 1.0 | 3.0 | 0.00 | 0.04 | 0.04 | 88 | 1014.7 |
| 20260505124524 | 53 | 226 | 0.0 | 1.0 | 0.00 | 0.04 | 0.04 | 91 | 1013.7 |
| 20260505123624 | 53 | 224 | 0.0 | 1.0 | 0.00 | 0.04 | 0.04 | 91 | 1013.6 |
| 20260505122724 | 53 | 222 | 0.0 | 2.0 | 0.00 | 0.04 | 0.04 | 91 | 1013.7 |
| 20260505121803 | 53 | 220 | 0.0 | 2.0 | 0.00 | 0.04 | 0.04 | 91 | 1013.8 |
| 20260505120903 | 53 | 227 | 0.0 | 2.0 | 0.00 | 0.04 | 0.04 | 92 | 1014.1 |
| 20260505120003 | 53 | 231 | 0.0 | 1.0 | 0.00 | 0.04 | 0.04 | 91 | 1014.1 |
| 20260505115403 | 53 | 238 | 0.0 | 1.0 | 0.00 | 0.04 | 0.04 | 91 | 1014.1 |
| 20260505114506 | 53 | 260 | 0.0 | 2.0 | 0.00 | 0.04 | 0.04 | 91 | 1014.1 |
| 20260505113603 | 53 | 286 | 0.0 | 2.0 | 0.00 | 0.04 | 0.04 | 91 | 1013.9 |
| 20260505112703 | 53 | 294 | 0.0 | 2.0 | 0.00 | 0.04 | 0.04 | 91 | 1014.1 |
| 20260505111803 | 53 | 294 | 0.0 | 2.0 | 0.00 | 0.04 | 0.04 | 91 | 1014.2 |
| 20260505110903 | 53 | 294 | 0.0 | 1.0 | 0.00 | 0.04 | 0.04 | 91 | 1014.2 |
| 20260505101805 | 54 | 294 | 0.0 | 1.0 | 0.00 | 0.04 | 0.04 | 91 | 1014.2 |
| 20260505100903 | 54 | 294 | 0.0 | 3.0 | 0.00 | 0.04 | 0.04 | 91 | 1014.3 |
| 20260505100003 | 54 | 0 | 0.0 | 1.0 | 0.00 | 0.04 | 0.04 | 91 | 1014.2 |
| 20260505095424 | 54 | 294 | 0.0 | 1.0 | 0.00 | 0.04 | 0.04 | 91 | 1014.0 |
| 20260505094503 | 54 | 294 | 0.0 | 1.0 | 0.00 | 0.04 | 0.04 | 91 | 1014.1 |
| 20260505093603 | 54 | 294 | 0.0 | 1.0 | 0.00 | 0.04 | 0.04 | 90 | 1014.4 |
| 20260505092724 | 54 | 294 | 0.0 | 2.0 | 0.00 | 0.04 | 0.04 | 90 | 1014.6 |
| 20260505091803 | 54 | 294 | 1.0 | 3.0 | 0.00 | 0.04 | 0.04 | 90 | 1014.7 |
| 20260505090903 | 54 | 294 | 1.0 | 4.0 | 0.00 | 0.04 | 0.04 | 90 | 1014.9 |
| 20260505090003 | 54 | 294 | 1.0 | 4.0 | 0.01 | 0.04 | 0.04 | 90 | 1014.7 |
| 20260505085403 | 54 | 294 | 1.0 | 2.0 | 0.01 | 0.04 | 0.04 | 90 | 1014.7 |
| 20260505084524 | 54 | 294 | 1.0 | 3.0 | 0.02 | 0.04 | 0.04 | 90 | 1014.6 |
| 20260505083603 | 54 | 294 | 0.0 | 4.0 | 0.03 | 0.04 | 0.04 | 90 | 1014.5 |
| 20260505082724 | 54 | 300 | 1.0 | 4.0 | 0.04 | 0.04 | 0.04 | 89 | 1014.4 |
| 20260505081803 | 54 | 316 | 1.0 | 4.0 | 0.04 | 0.04 | 0.04 | 89 | 1014.7 |
| 20260505080903 | 55 | 316 | 2.0 | 4.0 | 0.04 | 0.04 | 0.04 | 89 | 1014.9 |
| 20260505080003 | 55 | 315 | 1.0 | 4.0 | 0.03 | 0.03 | 0.03 | 88 | 1014.9 |
| 20260505075403 | 55 | 318 | 1.0 | 4.0 | 0.03 | 0.03 | 0.03 | 88 | 1015.0 |
| 20260505074503 | 55 | 315 | 1.0 | 5.0 | 0.02 | 0.02 | 0.02 | 88 | 1015.0 |
| 20260505073603 | 55 | 316 | 2.0 | 8.0 | 0.01 | 0.01 | 0.01 | 87 | 1015.2 |
| 20260505072703 | 55 | 309 | 2.0 | 6.0 | 0.00 | 0.00 | 0.00 | 86 | 1015.4 |
| 20260505071803 | 56 | 318 | 2.0 | 6.0 | 0.00 | 0.00 | 0.00 | 86 | 1015.2 |
| 20260505070903 | 56 | 316 | 2.0 | 5.0 | 0.00 | 0.00 | 0.00 | 85 | 1014.8 |
| 20260505070003 | 56 | 327 | 2.0 | 5.0 | 0.00 | 0.00 | 0.00 | 84 | 1014.7 |
| 20260505065403 | 56 | 331 | 2.0 | 4.0 | 0.00 | 0.00 | 0.00 | 84 | 1014.7 |
| 20260505064503 | 56 | 332 | 2.0 | 4.0 | 0.00 | 0.00 | 0.00 | 83 | 1014.8 |
| 20260505063603 | 56 | 333 | 2.0 | 5.0 | 0.00 | 0.00 | 0.00 | 82 | 1014.8 |
| 20260505062703 | 56 | 336 | 2.0 | 5.0 | 0.00 | 0.00 | 0.00 | 82 | 1014.7 |
| 20260505061803 | 56 | 339 | 1.0 | 4.0 | 0.00 | 0.00 | 0.00 | 81 | 1014.7 |
| 20260505060903 | 56 | 340 | 1.0 | 3.0 | 0.00 | 0.00 | 0.00 | 81 | 1014.7 |
| 20260505060003 | 56 | 336 | 1.0 | 3.0 | 0.00 | 0.00 | 0.00 | 80 | 1014.7 |
| 20260505055403 | 56 | 319 | 1.0 | 3.0 | 0.00 | 0.00 | 0.00 | 80 | 1014.6 |
| 20260505054503 | 57 | 323 | 1.0 | 3.0 | 0.00 | 0.00 | 0.00 | 80 | 1014.7 |
| 20260505053624 | 57 | 338 | 2.0 | 9.0 | 0.00 | 0.00 | 0.00 | 79 | 1014.4 |
| 20260505052703 | 57 | 320 | 2.0 | 6.0 | 0.00 | 0.00 | 0.00 | 79 | 1014.4 |
| 20260505051803 | 57 | 320 | 2.0 | 5.0 | 0.00 | 0.00 | 0.00 | 78 | 1014.5 |
| 20260505050903 | 57 | 333 | 2.0 | 6.0 | 0.00 | 0.00 | 0.00 | 78 | 1014.7 |
| 20260505040903 | 58 | 329 | 2.0 | 9.0 | 0.00 | 0.00 | 0.00 | 77 | 1014.4 |
| 20260505040003 | 58 | 342 | 2.0 | 5.0 | 0.00 | 0.00 | 0.00 | 77 | 1014.3 |
| 20260505035403 | 58 | 337 | 2.0 | 8.0 | 0.00 | 0.00 | 0.00 | 76 | 1014.2 |
| 20260505034503 | 58 | 344 | 2.0 | 7.0 | 0.00 | 0.00 | 0.00 | 76 | 1014.1 |
| 20260505033603 | 59 | 333 | 2.0 | 4.0 | 0.00 | 0.00 | 0.00 | 75 | 1014.1 |
| 20260505032703 | 59 | 340 | 2.0 | 5.0 | 0.00 | 0.00 | 0.00 | 75 | 1013.9 |
| 20260505031803 | 60 | 331 | 1.0 | 5.0 | 0.00 | 0.00 | 0.00 | 75 | 1013.7 |
| 20260505030903 | 60 | 325 | 1.0 | 6.0 | 0.00 | 0.00 | 0.00 | 76 | 1013.7 |
| 20260505030003 | 60 | 238 | 0.0 | 6.0 | 0.00 | 0.00 | 0.00 | 77 | 1013.5 |
| 20260505025403 | 61 | 211 | 0.0 | 1.0 | 0.00 | 0.00 | 0.00 | 77 | 1013.5 |
| 20260505024503 | 61 | 211 | 0.0 | 1.0 | 0.00 | 0.00 | 0.00 | 77 | 1013.5 |
| 20260505023603 | 61 | 203 | 0.0 | 2.0 | 0.00 | 0.00 | 0.00 | 76 | 1013.5 |
| 20260505022703 | 61 | 194 | 0.0 | 2.0 | 0.00 | 0.00 | 0.00 | 76 | 1013.5 |
| 20260505021803 | 61 | 187 | 0.0 | 2.0 | 0.00 | 0.00 | 0.00 | 75 | 1013.7 |
| 20260505020903 | 61 | 183 | 0.0 | 1.0 | 0.00 | 0.00 | 0.00 | 74 | 1013.8 |
| 20260505020003 | 61 | 181 | 0.0 | 1.0 | 0.00 | 0.00 | 0.00 | 72 | 1013.8 |
| 20260505015424 | 61 | 0 | 0.0 | 0.0 | 0.00 | 0.00 | 0.00 | 71 | 1013.8 |
| 20260505014503 | 61 | 0 | 0.0 | 0.0 | 0.00 | 0.00 | 0.00 | 70 | 1013.8 |
| 20260505013603 | 62 | 0 | 0.0 | 0.0 | 0.00 | 0.00 | 0.00 | 71 | 1013.7 |
| 20260505012703 | 62 | 181 | 0.0 | 1.0 | 0.00 | 0.00 | 0.00 | 71 | 1013.9 |
| 20260505011803 | 62 | 184 | 0.0 | 1.0 | 0.00 | 0.00 | 0.00 | 71 | 1013.9 |
| 20260505010924 | 62 | 183 | 0.0 | 2.0 | 0.00 | 0.00 | 0.00 | 70 | 1014.0 |
| 20260505010003 | 62 | 188 | 0.0 | 2.0 | 0.00 | 0.00 | 0.00 | 71 | 1013.9 |
| 20260505005403 | 62 | 186 | 0.0 | 2.0 | 0.00 | 0.00 | 0.00 | 70 | 1014.0 |
| 20260505004503 | 62 | 160 | 0.0 | 2.0 | 0.00 | 0.00 | 0.00 | 70 | 1013.9 |
| 20260505003603 | 63 | 162 | 0.0 | 2.0 | 0.00 | 0.00 | 0.00 | 70 | 1014.0 |
| 20260505002703 | 63 | 146 | 0.0 | 3.0 | 0.00 | 0.00 | 0.00 | 69 | 1014.1 |
| 20260505001803 | 63 | 138 | 0.0 | 1.0 | 0.00 | 0.00 | 0.00 | 69 | 1014.1 |
| 20260505000903 | 63 | 130 | 0.0 | 2.0 | 0.00 | 0.00 | 0.00 | 69 | 1014.1 |
| 20260505000003 | 63 | 117 | 0.0 | 2.0 | 0.00 | 0.00 | 0.00 | 68 | 1014.1 |
| 20260504235403 | 63 | 108 | 0.0 | 2.0 | 0.00 | 0.00 | 0.00 | 69 | 1014.1 |
| 20260504234524 | 63 | 104 | 0.0 | 2.0 | 0.00 | 0.00 | 0.00 | 69 | 1014.3 |
| 20260504233603 | 63 | 115 | 1.0 | 2.0 | 0.00 | 0.00 | 0.00 | 68 | 1014.2 |
| 20260504232703 | 63 | 111 | 1.0 | 2.0 | 0.00 | 0.00 | 0.00 | 69 | 1014.1 |
| 20260504231803 | 63 | 110 | 0.0 | 3.0 | 0.00 | 0.00 | 0.00 | 69 | 1014.1 |
| 20260504230903 | 63 | 97 | 1.0 | 2.0 | 0.00 | 0.00 | 0.00 | 68 | 1014.1 |
| 20260504230003 | 64 | 95 | 0.0 | 2.0 | 0.00 | 0.00 | 0.00 | 67 | 1014.1 |
| 20260504225405 | 64 | 103 | 0.0 | 2.0 | 0.00 | 0.00 | 0.00 | 67 | 1014.1 |
| 20260504224504 | 64 | 101 | 1.0 | 2.0 | 0.00 | 0.00 | 0.00 | 67 | 1014.2 |
| 20260504223603 | 64 | 97 | 1.0 | 3.0 | 0.00 | 0.00 | 0.00 | 66 | 1014.2 |
| 20260504222724 | 65 | 80 | 1.0 | 3.0 | 0.00 | 0.00 | 0.00 | 65 | 1014.2 |
| 20260504221824 | 65 | 62 | 1.0 | 3.0 | 0.00 | 0.00 | 0.00 | 64 | 1014.2 |
| 20260504220903 | 66 | 82 | 1.0 | 4.0 | 0.00 | 0.00 | 0.00 | 63 | 1014.3 |
| 20260504220003 | 67 | 42 | 2.0 | 4.0 | 0.00 | 0.00 | 0.00 | 62 | 1014.3 |
| 20260504215403 | 67 | 33 | 1.0 | 4.0 | 0.00 | 0.00 | 0.00 | 61 | 1014.4 |
| 20260504214524 | 68 | 63 | 1.0 | 4.0 | 0.00 | 0.00 | 0.00 | 60 | 1014.4 |
| 20260504213603 | 68 | 56 | 1.0 | 4.0 | 0.00 | 0.00 | 0.00 | 61 | 1014.5 |
| 20260504212724 | 68 | 15 | 1.0 | 5.0 | 0.00 | 0.00 | 0.00 | 60 | 1014.4 |
| 20260504211803 | 67 | 18 | 1.0 | 4.0 | 0.00 | 0.00 | 0.00 | 61 | 1014.5 |
| 20260504210903 | 67 | 330 | 2.0 | 4.0 | 0.00 | 0.00 | 0.00 | 62 | 1014.5 |
| 20260504210003 | 67 | 340 | 2.0 | 6.0 | 0.00 | 0.00 | 0.00 | 64 | 1014.6 |
| 20260504205403 | 67 | 321 | 2.0 | 6.0 | 0.00 | 0.00 | 0.00 | 66 | 1014.6 |
| 20260504204503 | 66 | 328 | 2.0 | 6.0 | 0.00 | 0.00 | 0.00 | 65 | 1014.6 |
| 20260504203603 | 66 | 265 | 1.0 | 4.0 | 0.00 | 0.00 | 0.00 | 62 | 1014.6 |
| 20260504202703 | 67 | 276 | 1.0 | 4.0 | 0.00 | 0.00 | 0.00 | 61 | 1014.6 |
| 20260504201803 | 67 | 327 | 1.0 | 5.0 | 0.00 | 0.00 | 0.00 | 61 | 1014.6 |
| 20260504200924 | 67 | 343 | 1.0 | 5.0 | 0.00 | 0.00 | 0.00 | 60 | 1014.7 |
| 20260504200003 | 68 | 318 | 1.0 | 4.0 | 0.00 | 0.00 | 0.00 | 60 | 1014.5 |
| 20260504195403 | 68 | 316 | 2.0 | 5.0 | 0.00 | 0.00 | 0.00 | 60 | 1014.5 |
| 20260504194503 | 68 | 271 | 1.0 | 3.0 | 0.00 | 0.00 | 0.00 | 61 | 1014.5 |
| 20260504193624 | 67 | 10 | 1.0 | 4.0 | 0.00 | 0.00 | 0.00 | 63 | 1014.5 |
| 20260504192703 | 66 | 45 | 0.0 | 2.0 | 0.00 | 0.00 | 0.00 | 61 | 1014.5 |
| 20260504191803 | 66 | 18 | 1.0 | 4.0 | 0.00 | 0.00 | 0.00 | 60 | 1014.8 |
| 20260504190903 | 66 | 76 | 1.0 | 4.0 | 0.00 | 0.00 | 0.00 | 60 | 1014.9 |
| 20260504190003 | 66 | 1 | 0.0 | 1.0 | 0.00 | 0.00 | 0.00 | 61 | 1014.8 |
| 20260504185403 | 66 | 4 | 0.0 | 2.0 | 0.00 | 0.00 | 0.00 | 62 | 1014.8 |
| 20260504184524 | 65 | 10 | 0.0 | 2.0 | 0.00 | 0.00 | 0.00 | 64 | 1014.7 |
| 20260504183624 | 65 | 40 | 0.0 | 3.0 | 0.00 | 0.00 | 0.00 | 64 | 1014.8 |
| 20260504182703 | 64 | 52 | 1.0 | 2.0 | 0.00 | 0.00 | 0.00 | 64 | 1014.8 |
| 20260504181803 | 64 | 93 | 0.0 | 3.0 | 0.00 | 0.00 | 0.00 | 65 | 1014.9 |
| 20260504180924 | 64 | 95 | 0.0 | 4.0 | 0.00 | 0.00 | 0.00 | 64 | 1015.0 |
| 20260504180024 | 64 | 97 | 0.0 | 4.0 | 0.00 | 0.00 | 0.00 | 65 | 1014.9 |
| 20260504175424 | 63 | 135 | 0.0 | 3.0 | 0.00 | 0.00 | 0.00 | 65 | 1015.0 |
| 20260504174524 | 63 | 193 | 0.0 | 2.0 | 0.00 | 0.00 | 0.00 | 66 | 1015.0 |
| 20260504173624 | 63 | 143 | 1.0 | 3.0 | 0.00 | 0.00 | 0.00 | 67 | 1014.8 |
| 20260504172724 | 62 | 84 | 0.0 | 2.0 | 0.00 | 0.00 | 0.00 | 68 | 1014.8 |
| 20260504171824 | 62 | 86 | 0.0 | 2.0 | 0.00 | 0.00 | 0.00 | 68 | 1014.7 |
| 20260504170903 | 61 | 106 | 1.0 | 3.0 | 0.00 | 0.00 | 0.00 | 71 | 1014.7 |